World > North America > United States > Alabama > Saragossa  

Saragossa, AL Hourly Weather Updates

Feedback E-mail the Weather

Quick Clicks

Saragossa, AL Weather Maps

°F °C°F °C
Saragossa Weather Map
UTC Time: 6/15/2024, 17:07
Your Time:

Saragossa, AL Regional Weather

Expires:202406151700;;064810
ASUS44 KBMX 151610
RWRAL 
             
ALABAMA REGIONAL WEATHER ROUNDUP
NATIONAL WEATHER SERVICE BIRMINGHAM AL
1100 AM CDT SAT JUN 15 2024

NOTE: "FAIR" INDICATES FEW OR NO CLOUDS BELOW 12,000 FEET
WITH NO SIGNIFICANT WEATHER AND/OR OBSTRUCTIONS TO VISIBILITY.

THE REMARK "TC" DENOTES TEMPERATURE IN DEGREES CELSIUS.


ALZ015-024>026-033>036-041>044-151700-
CENTRAL ALABAMA
  
CITY           SKY/WX    TMP DP  RH WIND       PRES   REMARKS
BIRMINGHAM     MOSUNNY   91  66  43 VRB3      30.04S HX  93  TC  33   
MONTGOMERY     SUNNY     92  69  47 CALM      30.00S HX  97  TC  33   
SHELBY CO ARPT SUNNY     94  70  45 N5        30.02R HX 100  TC  34   
MAXWELL AFB    SUNNY     92  68  45 CALM      29.98S HX  95  TC  33   
GREENVILLE     SUNNY     90  68  48 E6        30.00S HX  94  TC  32   
SELMA          SUNNY     93  70  46 VRB5      29.99S HX  99  TC  34   
PRATTVILLE     SUNNY     90  67  45 CALM      30.00S HX  93  TC  32   
BESSEMER       SUNNY     91  70  49 NW5       30.03S HX  96  TC  33   
TALLADEGA      SUNNY     93  70  46 N6        30.00F HX  99  TC  34   
PELL CITY      SUNNY     91  68  46 CALM      30.02F HX  95  TC  33   
SYLACAUGA      CLOUDY    92  70  48 CALM      30.02S HX  97  TC  33   
JASPER         SUNNY     91  70  49 VRB3      30.02S HX  97  TC  33   
$$
 

SKY/WX - Weather  TMP - Temperature  DP - Dew Point  RH - Humidity
WIND - Wind Direction/Speed PRES - Barometric Pressure VSB - Visibility
WCI - Wind Chill Index E13G22 Wind - East Wind 13 mph/Gusts of 22 mph

Trending Headlines

Trending Entertainment Headlines

Saragossa Radar Loop

Use the map search tool if you want to place a location marker on the radar map...

Saragossa Quick Facts

National Two Day Weather Forecast


E-mail the Saragossa Weather Forecast

Voice your opinion or tell us about page issues...